Flag for Norway Weather past 2 weeks in Haugesund, Norway

Now
52 °F

Partly sunny.


Feels Like: 48 °F
Forecast: 49 / 56 °F
Wind: 12 mph from Southeast

Location: Haugesund / Karmoy

Current Time: Sep 23, 2014 at 10:45:03 AM

Latest Report: Sep 23, 2014 at 9:50 AM


Visibility: N/A

Pressure: 29.95 "Hg

Humidity: 88%

Dew point: 48 °F

Location of HaugesundLocation

Historic Weather in Haugesund — Graph

°F

Haugesund temperature yesterday

Maximum temperature yesterday: 57 °F (at 1:20 PM)
Minimum temperature yesterday: 45 °F (at 11:50 PM)
Average temperature yesterday: 53 °F

Past Weeks' High & Low Weather Summary

 TemperatureHumidityPressure
High72 °F (Sep 16, 1:50 PM)100% (Sep 9, 9:20 AM)30.45 "Hg (Sep 9, 9:20 AM)
Low41 °F (Sep 23, 12:20 AM)33% (Sep 16, 1:50 PM)29.83 "Hg (Sep 8, 9:20 AM)
Average57 °F77%30.16 "Hg
* Reported Sep 8 9:20 AM — Sep 23 9:50 AM, Haugesund, Weather by CustomWeather, © 2014

Note: Actual official high and low records may vary slightly from our data, if they occured in-between our weather recording intervals... More about our weather records

Advertising

Haugesund weather history for previous 24 hours

 ConditionsComfort  
Time TempWeatherWind HumidityBarometerVisibility
9:50 AM
Sep 23
52 °FPartly sunny.12 mph88%29.95 "HgN/A
9:20 AM50 °FPartly sunny.10 mph94%29.95 "HgN/A
8:50 AM50 °FPartly sunny.9 mph94%29.98 "HgN/A
8:20 AM50 °FPartly cloudy.8 mph94%29.98 "HgN/A
7:50 AM48 °FPartly cloudy.9 mph94%29.98 "HgN/A
7:20 AM48 °FPassing clouds.8 mph94%29.98 "HgN/A
6:50 AM48 °FLight rain. Passing clouds.8 mph94%29.98 "HgN/A
6:20 AM48 °FMostly cloudy.9 mph94%29.98 "HgN/A
5:50 AM48 °FMostly cloudy.9 mph94%30.01 "HgN/A
5:20 AM48 °FOvercast.8 mph94%30.01 "HgN/A
4:50 AM46 °FMostly cloudy.8 mph93%30.01 "HgN/A
4:20 AM46 °FMostly cloudy.9 mph93%30.01 "HgN/A
3:50 AM46 °FMostly cloudy.9 mph93%30.01 "HgN/A
3:20 AM46 °FPassing clouds.8 mph87%30.01 "HgN/A
2:50 AM45 °FPartly cloudy.7 mph93%30.04 "HgN/A
2:20 AM45 °FPassing clouds.7 mph87%30.04 "HgN/A
1:50 AM41 °FPassing clouds.7 mph93%30.04 "HgN/A
1:20 AM41 °FPassing clouds.5 mph87%30.04 "HgN/A
12:50 AM41 °FQuite cool.3 mph93%30.04 "HgN/A
12:20 AM41 °FQuite cool.2 mph93%30.04 "HgN/A
11:50 PM
Sep 22
45 °FQuite cool.3 mph87%30.04 "HgN/A
11:20 PM48 °FCool.9 mph76%30.04 "HgN/A
10:50 PM52 °FClear.8 mph72%30.07 "Hg10 mi
10:20 PM50 °FClear.9 mph71%30.07 "Hg10 mi
9:50 PM52 °FClear.10 mph67%30.07 "Hg10 mi
9:20 PM54 °FClear.9 mph67%30.07 "Hg10 mi
8:50 PM54 °FClear.10 mph63%30.07 "Hg10 mi
8:20 PM54 °FSunny.10 mph63%30.07 "Hg10 mi
7:50 PM54 °FSunny.10 mph63%30.07 "Hg10 mi
7:20 PM55 °FSunny.10 mph59%30.07 "Hg10 mi
6:50 PM54 °FPassing clouds.7 mph58%30.07 "HgN/A
6:20 PM54 °FSunny.10 mph63%30.07 "Hg10 mi
5:50 PM55 °FSunny.13 mph59%30.07 "Hg10 mi
5:20 PM55 °FSunny.13 mph59%30.07 "Hg10 mi
4:50 PM55 °FSunny.13 mph63%30.07 "Hg10 mi
4:20 PM55 °FSunny.13 mph59%30.09 "Hg10 mi
3:50 PM55 °FPassing clouds.9 mph59%30.09 "HgN/A
3:20 PM57 °FPassing clouds.8 mph51%30.09 "HgN/A
2:50 PM57 °FSunny.8 mph55%30.09 "Hg10 mi
2:20 PM57 °FSunny.9 mph51%30.09 "Hg10 mi
1:50 PM55 °FSunny.9 mph47%30.09 "Hg10 mi
1:20 PM57 °FPassing clouds.9 mph51%30.09 "HgN/A
12:50 PM55 °FPassing clouds.7 mph51%30.09 "HgN/A
12:20 PM55 °FSunny.6 mph51%30.09 "Hg10 mi
11:50 AM54 °FSunny.8 mph51%30.09 "Hg10 mi
11:20 AM54 °FSunny.8 mph58%30.09 "Hg10 mi
10:50 AM54 °FSunny.10 mph63%30.09 "Hg10 mi
10:20 AM54 °FSunny.14 mph63%30.09 "Hg10 mi
Weather by CustomWeather, © 2014

See weather overviewHow to use our weather pages